Starlink 31117

operational
NORAD ID: 58776 Int'l Des: 2024-011 Owner: SPXS Country: US Constellation: starlink
LEOCIRCULAR

Über Starlink 31117

Beschreibung wird geladen...

Live-Position

3D-Globus wird geladen...

Nächste Überflüge

Höhenverlauf

Altitude vs Time

uPlot chart will show altitude changes over time

Zweizeiliger Elementsatz

1 58776U 24011M 25258.29619370 -.00000064 00000-0 99489-5 0 9995
2 58776 53.1605 108.5745 0001067 97.8882 262.2240 15.30193774 93416
Epoch: 15. Sept. 2025 • Age: 14 hours

Aktueller Status

Höhe 481.1 km
Geschwindigkeit 7.63 km/s
Subsatellitenpunkt 53.14°N, 129.54°W
Startdatum 14. Jan. 2024
Alter 1.6 years
Typ internet

Technische Details

Klassifizierung Payload
Masse 730.00 kg
Trockenmasse 700.00 kg
Gesamtmasse 730.00 kg
Länge 0.30 m
Durchmesser 4.10 m
Spannweite 29.00 m
Form Box + pan
Hersteller SPXS
Bus-Typ Starlink V2M
Phasenstatus In Orbit
Besitzer/Staat SPXS/US

Große Konstellationen

Loading constellations...